Regional Weather Roundup
Issued by NWS

Home | Current Version | Previous Version | Graphics & Text | Print | Product List | Glossary On
Versions: 1 2 3 4 5 6 7 8 9 10 11 12 13 14 15 16 17 18 19 20 21 22 23 24 25 26 27 28 29 30 31 32 33 34 35 36 37 38 39 40 41 42 43 44 45 46 47 48 49 50
880
ASUS43 KFSD 281502
RWRSD

WEATHER ROUNDUP FOR SOUTH DAKOTA
NATIONAL WEATHER SERVICE SIOUX FALLS SD
1000 AM CDT THU JUL 28 2016

NOTE: "FAIR" INDICATES FEW OR NO CLOUDS BELOW 12,000 FEET WITH NO
SIGNIFICANT WEATHER AND/OR OBSTRUCTIONS TO VISIBILITY.


SDZ001>005-009-010-012>017-281600-
NORTHWEST AND NORTH CENTRAL SOUTH DAKOTA

CITY           SKY/WX    TMP DP  RH WIND       PRES   REMARKS
BUFFALO          N/A     67  63  87 SE8       30.07S
FAITH            N/A     70  54  56 SE16      30.10F
MOBRIDGE       PTSUNNY   70  57  63 E8        30.11S
$$

SDZ012>016-024>037-041>051-057-063-072>074-281600-
SOUTHWEST AND SOUTH CENTRAL SOUTH DAKOTA

CITY           SKY/WX    TMP DP  RH WIND       PRES   REMARKS
RAPID CTY ARPT CLOUDY    66  60  81 NW10      30.15R
PIERRE         SUNNY     72  55  55 SE12      30.10F
CUSTER         LGT RAIN  57  51  80 W13G22    30.29R
PHILIP         MOSUNNY   69  64  84 SE8       30.10S
PINE RIDGE     LGT RAIN  65  61  87 NW6       30.14R
WINNER         FAIR      68  62  81 E8        30.11F
$$

SDZ004>011-016>023-039-040-281600-
NORTHEAST SOUTH DAKOTA

CITY           SKY/WX    TMP DP  RH WIND       PRES   REMARKS
ABERDEEN       CLOUDY    64  59  83 N7        30.12R
WATERTOWN      CLOUDY    69  60  73 NE9       30.10S
BROOKINGS      PTSUNNY   66  62  87 NE6       30.09S
$$

SDZ017-020-022-023-036>040-048>070-281600-
SOUTHEAST SOUTH DAKOTA

CITY           SKY/WX    TMP DP  RH WIND       PRES   REMARKS
SIOUX FALLS    CLOUDY    71  63  75 NE7       30.08S
HURON          SUNNY     72  59  63 N9        30.10R
CHAMBERLAIN    PTSUNNY   72  61  69 SE3       30.12F
MITCHELL       MOSUNNY   72  61  68 CALM      30.10F
YANKTON        SUNNY     72  59  64 NW9       30.06F
$$

ABBREVIATIONS USED IN REMARKS
   TC - TEMPERATURE IN CELSIUS
  WCI - WIND CHILL INDEX
   HX - HEAT INDEX
  VSB - VISIBILITY





USA.gov is the U.S. government's official web portal to all federal, state and local government web resources and services.